AFL527 OMDB-UUEE

Flight info

Callsign AFL527
Flight time N/A
Altitude 36000
Route DAVMO M318 GABKO N440 RADEB M318 ASMUK W32 PURKI M715 OBRIX N39 LASKA/K0832F360 DCT TUVGI DCT EVZUN DCT ZIZAR DCT VAZLU DCT UZZID DCT NOKLI N72 WGD G481 OBABI T619 UMRAL P163 GOLRI L736 OLOPI OLOPI3E
Aircraft A320/M-SDE3FGHIRWY/LB1

Departure

Time 2026-04-25 13:17
Airport Dubai International Airport (OMDB)

Arrival

Time N/A
Airport Sheremetyevo International Airport (UUEE)
Time Latitude Longitude Altitude Speed Heading
2026-04-25 12:47 25.25925 55.36738 28 ft 0 kts 30°
2026-04-25 13:04 25.25920 55.36736 24 ft 2 kts 31°
2026-04-25 13:04 25.25904 55.36724 25 ft 3 kts 32°
2026-04-25 13:05 25.25887 55.36712 26 ft 3 kts 36°
2026-04-25 13:05 25.25871 55.36698 24 ft 3 kts 46°
2026-04-25 13:05 25.25859 55.36682 27 ft 3 kts 79°
2026-04-25 13:05 25.25858 55.36669 27 ft 1 kts 121°
2026-04-25 13:06 25.25859 55.36669 27 ft 0 kts 121°
2026-04-25 13:09 25.25852 55.36681 27 ft 4 kts 122°
2026-04-25 13:09 25.25833 55.36714 25 ft 7 kts 121°
2026-04-25 13:10 25.25803 55.36768 26 ft 9 kts 122°
2026-04-25 13:10 25.25766 55.36838 26 ft 12 kts 120°
2026-04-25 13:10 25.25721 55.36921 29 ft 12 kts 121°
2026-04-25 13:10 25.25681 55.36992 29 ft 10 kts 122°
2026-04-25 13:11 25.25648 55.37051 27 ft 10 kts 122°
2026-04-25 13:11 25.25606 55.37124 27 ft 13 kts 123°
2026-04-25 13:11 25.25555 55.37219 28 ft 14 kts 121°
2026-04-25 13:11 25.25507 55.37305 29 ft 12 kts 122°
2026-04-25 13:12 25.25466 55.37377 29 ft 12 kts 131°
2026-04-25 13:12 25.25398 55.37384 34 ft 7 kts 187°
2026-04-25 13:12 25.25371 55.37393 36 ft 5 kts 149°
2026-04-25 13:12 25.25344 55.37424 37 ft 12 kts 126°
2026-04-25 13:13 25.25269 55.37560 37 ft 15 kts 121°
2026-04-25 13:13 25.25220 55.37648 38 ft 12 kts 122°
2026-04-25 13:13 25.25179 55.37721 38 ft 10 kts 121°
2026-04-25 13:13 25.25143 55.37787 37 ft 10 kts 121°
2026-04-25 13:14 25.25109 55.37849 36 ft 9 kts 121°
2026-04-25 13:14 25.25080 55.37903 36 ft 7 kts 121°
2026-04-25 13:14 25.25044 55.37966 37 ft 13 kts 121°
2026-04-25 13:14 25.25000 55.38046 36 ft 11 kts 121°
2026-04-25 13:15 25.24957 55.38113 35 ft 10 kts 141°
2026-04-25 13:15 25.24910 55.38113 38 ft 5 kts 204°
2026-04-25 13:15 25.24893 55.38103 39 ft 2 kts 210°
2026-04-25 13:15 25.24867 55.38086 40 ft 7 kts 210°
2026-04-25 13:16 25.24815 55.38044 41 ft 10 kts 238°
2026-04-25 13:16 25.24829 55.37978 40 ft 0 kts 300°
2026-04-25 13:16 25.24829 55.37977 40 ft 0 kts 300°
2026-04-25 13:16 25.24944 55.37771 39 ft 67 kts 301°
2026-04-25 13:17 25.25294 55.37142 36 ft 124 kts 301°
2026-04-25 13:17 25.25821 55.36196 29 ft 167 kts 301°
2026-04-25 13:17 25.26426 55.35094 616 ft 163 kts 302°
2026-04-25 13:17 25.27039 55.33996 1034 ft 174 kts 303°
2026-04-25 13:18 25.27693 55.32830 1441 ft 182 kts 303°
2026-04-25 13:18 25.28362 55.31629 1944 ft 185 kts 303°
2026-04-25 13:18 25.29065 55.30436 2447 ft 186 kts 313°
2026-04-25 13:18 25.30125 55.29634 2920 ft 189 kts 341°
2026-04-25 13:19 25.31462 55.29486 3286 ft 198 kts
2026-04-25 13:19 25.32857 55.29529 3750 ft 202 kts 360°
2026-04-25 13:19 25.34274 55.29568 4275 ft 205 kts 360°
2026-04-25 13:19 25.35224 55.29593 4607 ft 208 kts 359°
2026-04-25 13:20 25.37232 55.29650 5011 ft 229 kts 359°
2026-04-25 13:20 25.38894 55.29738 5212 ft 251 kts
2026-04-25 13:20 25.40558 55.30548 5409 ft 275 kts 33°
2026-04-25 13:20 25.42159 55.31786 5895 ft 285 kts 33°
2026-04-25 13:21 25.43801 55.33041 6510 ft 289 kts 33°
2026-04-25 13:21 25.45466 55.34307 7131 ft 292 kts 33°
2026-04-25 13:21 25.47150 55.35583 7787 ft 295 kts 33°
2026-04-25 13:21 25.48829 55.36854 8424 ft 298 kts 33°
2026-04-25 13:22 25.50547 55.38155 9079 ft 301 kts 33°
2026-04-25 13:22 25.52283 55.39469 9718 ft 304 kts 33°
2026-04-25 13:22 25.54044 55.40804 10169 ft 315 kts 33°
2026-04-25 13:23 25.57907 55.43734 10428 ft 356 kts 33°
2026-04-25 13:23 25.59976 55.45309 10831 ft 365 kts 34°
2026-04-25 13:23 25.62077 55.46915 11366 ft 368 kts 34°
2026-04-25 13:23 25.64193 55.48535 11927 ft 372 kts 34°
2026-04-25 13:24 25.66331 55.50171 12483 ft 375 kts 34°
2026-04-25 13:24 25.68486 55.51817 13032 ft 378 kts 34°
2026-04-25 13:24 25.70665 55.53476 13583 ft 381 kts 34°
2026-04-25 13:24 25.72862 55.55148 14084 ft 385 kts 34°
2026-04-25 13:25 25.75076 55.56835 14568 ft 388 kts 34°
2026-04-25 13:25 25.77311 55.58540 15033 ft 392 kts 34°
2026-04-25 13:25 25.79566 55.60261 15500 ft 395 kts 34°
2026-04-25 13:25 25.81838 55.62001 15964 ft 399 kts 34°
2026-04-25 13:26 25.84130 55.63759 16414 ft 402 kts 33°
2026-04-25 13:26 25.86447 55.65526 16866 ft 406 kts 33°
2026-04-25 13:26 25.88783 55.67233 17310 ft 409 kts 32°
2026-04-25 13:26 25.91196 55.68934 17751 ft 413 kts 31°
2026-04-25 13:27 25.93643 55.70629 18179 ft 416 kts 31°
2026-04-25 13:27 25.96113 55.72336 18555 ft 419 kts 31°
2026-04-25 13:27 25.98596 55.74062 18942 ft 422 kts 31°
2026-04-25 13:27 26.01089 55.75810 19330 ft 425 kts 31°
2026-04-25 13:28 26.03629 55.77495 19703 ft 426 kts 25°
2026-04-25 13:28 26.04537 55.77970 19831 ft 427 kts 21°
2026-04-25 13:28 26.09284 55.79377 20465 ft 426 kts
2026-04-25 13:28 26.12236 55.79441 20839 ft 424 kts 353°
2026-04-25 13:29 26.15187 55.79195 21206 ft 426 kts 353°
2026-04-25 13:29 26.18154 55.78984 21586 ft 430 kts 356°
2026-04-25 13:29 26.21150 55.79213 21954 ft 435 kts
2026-04-25 13:30 26.27140 55.80470 22664 ft 441 kts
2026-04-25 13:30 26.30139 55.81097 22797 ft 448 kts
2026-04-25 13:30 26.33235 55.81739 22936 ft 456 kts
2026-04-25 13:31 26.39557 55.83050 23200 ft 468 kts
2026-04-25 13:31 26.42775 55.83722 23330 ft 473 kts
2026-04-25 13:31 26.46026 55.84406 23533 ft 477 kts
2026-04-25 13:31 26.49292 55.85095 23761 ft 479 kts
2026-04-25 13:32 26.52573 55.85782 23993 ft 480 kts
2026-04-25 13:32 26.55862 55.86469 24231 ft 482 kts
2026-04-25 13:32 26.59163 55.87159 24463 ft 483 kts
2026-04-25 13:32 26.62474 55.87854 24686 ft 485 kts
2026-04-25 13:33 26.65792 55.88552 24910 ft 486 kts
2026-04-25 13:33 26.69120 55.89253 25136 ft 488 kts
2026-04-25 13:33 26.72460 55.89954 25357 ft 489 kts
2026-04-25 13:33 26.74679 55.90419 25509 ft 490 kts
2026-04-25 13:34 26.79179 55.91267 25803 ft 491 kts
2026-04-25 13:34 26.82569 55.91747 26020 ft 491 kts
2026-04-25 13:34 26.85976 55.92132 26234 ft 492 kts
2026-04-25 13:34 26.89392 55.92474 26448 ft 494 kts
2026-04-25 13:35 26.92820 55.92816 26657 ft 495 kts
2026-04-25 13:35 26.96256 55.93186 26860 ft 497 kts
2026-04-25 13:35 26.99697 55.93587 27055 ft 499 kts
2026-04-25 13:35 27.03104 55.94007 27251 ft 500 kts
2026-04-25 13:36 27.06570 55.94449 27465 ft 501 kts
2026-04-25 13:36 27.10033 55.94895 27757 ft 500 kts
2026-04-25 13:36 27.13489 55.95337 28046 ft 500 kts
2026-04-25 13:36 27.16943 55.95775 28339 ft 499 kts
2026-04-25 13:37 27.20387 55.96204 28667 ft 498 kts
2026-04-25 13:37 27.23827 55.96624 28970 ft 497 kts
2026-04-25 13:37 27.27258 55.97038 29267 ft 496 kts
2026-04-25 13:37 27.30693 55.97455 29567 ft 495 kts
2026-04-25 13:38 27.34116 55.97875 29875 ft 495 kts
2026-04-25 13:38 27.37526 55.98298 30117 ft 494 kts
2026-04-25 13:38 27.40943 55.98723 30334 ft 494 kts
2026-04-25 13:38 27.44360 55.99147 30575 ft 494 kts
2026-04-25 13:39 27.47776 55.99571 30810 ft 494 kts
2026-04-25 13:39 27.51194 55.99996 31038 ft 494 kts
2026-04-25 13:39 27.54610 56.00420 31280 ft 494 kts
2026-04-25 13:39 27.58025 56.00842 31512 ft 494 kts
2026-04-25 13:40 27.61439 56.01265 31750 ft 493 kts
2026-04-25 13:40 27.64851 56.01688 31997 ft 493 kts
2026-04-25 13:40 27.68263 56.02113 32254 ft 493 kts
2026-04-25 13:40 27.71623 56.02532 32506 ft 492 kts
2026-04-25 13:41 27.75022 56.02956 32774 ft 491 kts
2026-04-25 13:41 27.78421 56.03379 33042 ft 491 kts
2026-04-25 13:41 27.81814 56.03801 33310 ft 490 kts
2026-04-25 13:41 27.85203 56.04226 33586 ft 489 kts
2026-04-25 13:42 27.88585 56.04649 33856 ft 488 kts
2026-04-25 13:42 27.91962 56.05072 34119 ft 487 kts
2026-04-25 13:42 27.95326 56.05494 34336 ft 486 kts
2026-04-25 13:42 27.98683 56.05914 34569 ft 485 kts
2026-04-25 13:43 28.02039 56.06335 34792 ft 484 kts
2026-04-25 13:43 28.05385 56.06753 34984 ft 483 kts
2026-04-25 13:43 28.08721 56.07169 35033 ft 482 kts
2026-04-25 13:44 28.15388 56.07778 35034 ft 475 kts 352°
2026-04-25 13:44 28.21744 56.06565 35042 ft 464 kts 339°
2026-04-25 13:45 28.27985 56.04690 35049 ft 464 kts 339°
2026-04-25 13:45 28.34234 56.02823 35057 ft 464 kts 340°
2026-04-25 13:46 28.40486 56.00954 35067 ft 464 kts 340°
2026-04-25 13:46 28.46738 55.99081 35080 ft 465 kts 339°
2026-04-25 13:47 28.52997 55.97206 35092 ft 465 kts 339°
2026-04-25 13:47 28.59265 55.95324 35109 ft 466 kts 339°
2026-04-25 13:48 28.65537 55.93433 35129 ft 467 kts 339°
2026-04-25 13:48 28.71820 55.91541 35145 ft 467 kts 339°
2026-04-25 13:49 28.78104 55.89640 35162 ft 467 kts 339°
2026-04-25 13:49 28.84390 55.87740 35180 ft 467 kts 339°
2026-04-25 13:50 28.90675 55.85837 35184 ft 467 kts 339°
2026-04-25 13:50 28.96915 55.83944 35196 ft 467 kts 339°
2026-04-25 13:51 29.03192 55.82034 35196 ft 467 kts 339°
2026-04-25 13:51 29.09464 55.80127 35195 ft 466 kts 339°
2026-04-25 13:52 29.15734 55.78218 35198 ft 466 kts 339°
2026-04-25 13:52 29.22002 55.76312 35194 ft 466 kts 338°
2026-04-25 13:53 29.28263 55.74402 35191 ft 466 kts 338°
2026-04-25 13:53 29.33467 55.72817 35189 ft 466 kts 338°
2026-04-25 13:54 29.39724 55.70907 35190 ft 465 kts 338°
2026-04-25 13:54 29.45982 55.68992 35186 ft 465 kts 338°
2026-04-25 13:55 29.53253 55.66768 35188 ft 465 kts 338°
2026-04-25 13:55 29.58232 55.64557 35185 ft 453 kts 326°
2026-04-25 13:56 29.63873 55.61307 35187 ft 454 kts 327°
2026-04-25 13:56 29.69523 55.58064 35189 ft 454 kts 327°
2026-04-25 13:57 29.75137 55.54847 35195 ft 454 kts 327°
2026-04-25 13:57 29.80787 55.51598 35187 ft 454 kts 327°
2026-04-25 13:58 29.86439 55.48343 35184 ft 454 kts 326°
2026-04-25 13:58 29.92092 55.45082 35177 ft 454 kts 326°
2026-04-25 13:59 29.97749 55.41822 35178 ft 455 kts 326°
2026-04-25 13:59 30.03402 55.38548 35176 ft 455 kts 326°
2026-04-25 14:00 30.09061 55.35277 35176 ft 455 kts 326°
2026-04-25 14:00 30.14716 55.32002 35181 ft 455 kts 326°
2026-04-25 14:01 30.20335 55.28745 35175 ft 455 kts 326°
2026-04-25 14:01 30.25990 55.25457 35175 ft 455 kts 326°
2026-04-25 14:02 30.31650 55.22175 35173 ft 455 kts 326°
2026-04-25 14:02 30.37312 55.18886 35171 ft 455 kts 326°
2026-04-25 14:03 30.42967 55.15592 35167 ft 455 kts 326°
2026-04-25 14:03 30.48624 55.12293 35162 ft 455 kts 326°
2026-04-25 14:04 30.54286 55.08989 35160 ft 455 kts 326°
2026-04-25 14:04 30.59904 55.05701 35153 ft 456 kts 326°
2026-04-25 14:05 30.65564 55.02383 35147 ft 456 kts 326°
2026-04-25 14:05 30.71226 54.99063 35140 ft 456 kts 326°
2026-04-25 14:06 30.76886 54.95739 35135 ft 456 kts 326°
2026-04-25 14:06 30.82551 54.92395 35128 ft 456 kts 326°
2026-04-25 14:07 30.88210 54.89037 35118 ft 457 kts 326°
2026-04-25 14:07 30.93877 54.85676 35110 ft 457 kts 326°
2026-04-25 14:08 30.99554 54.82310 35106 ft 458 kts 326°
2026-04-25 14:08 31.05236 54.78938 35097 ft 459 kts 326°
2026-04-25 14:09 31.10893 54.75580 35087 ft 460 kts 326°
2026-04-25 14:09 31.16240 54.72397 35072 ft 461 kts 326°
2026-04-25 14:10 31.21819 54.69072 35067 ft 462 kts 326°
2026-04-25 14:10 31.27551 54.65654 35066 ft 463 kts 326°
2026-04-25 14:11 31.33293 54.62220 35060 ft 464 kts 326°
2026-04-25 14:11 31.39012 54.58803 35053 ft 465 kts 326°
2026-04-25 14:12 31.44775 54.55351 35051 ft 466 kts 326°
2026-04-25 14:12 31.50550 54.51881 35046 ft 467 kts 326°
2026-04-25 14:13 31.56339 54.48408 35048 ft 467 kts 326°
2026-04-25 14:13 31.62136 54.44936 35047 ft 468 kts 326°
2026-04-25 14:14 31.67937 54.41449 35044 ft 468 kts 325°
2026-04-25 14:14 31.73739 54.37953 35043 ft 469 kts 325°
2026-04-25 14:15 31.79554 54.34445 35043 ft 470 kts 325°
2026-04-25 14:15 31.85336 54.30948 35046 ft 471 kts 325°
2026-04-25 14:16 31.91390 54.27882 35038 ft 484 kts 338°
2026-04-25 14:16 31.98014 54.26176 35032 ft 488 kts 341°
2026-04-25 14:17 32.04655 54.24492 35026 ft 488 kts 340°
2026-04-25 14:17 32.11299 54.22798 35022 ft 489 kts 340°
2026-04-25 14:18 32.17958 54.21104 35020 ft 490 kts 340°
2026-04-25 14:18 32.24581 54.19418 35013 ft 491 kts 340°
2026-04-25 14:19 32.31255 54.17716 35015 ft 491 kts 340°
2026-04-25 14:19 32.37942 54.16011 35010 ft 492 kts 340°
2026-04-25 14:20 32.44628 54.14283 35010 ft 492 kts 339°
2026-04-25 14:20 32.51302 54.12506 35003 ft 492 kts 339°
2026-04-25 14:21 32.57985 54.10730 35003 ft 493 kts 339°